Wetterdaten: Dienstag, 08.03.2016
Datum Zeit Auen-Temp. Temp gefhlt Luftfeuchte Luftdruck Regen Wind Richtung Richtung Sonnenschein Taupunkt Windben
08.03.2016 00:00 -4,8 C -5,2 C 77 % 1004,9 hPa 0,0 mm 0,0 km/h (0 Bft) O-NO 67 0 min -8,2 C 0,0 km/h (0 Bft)
08.03.2016 00:05 -4,6 C -5,1 C 77 % 1004,9 hPa 0,0 mm 0,0 km/h (0 Bft) O-SO 112 0 min -8,0 C 0,0 km/h (0 Bft)
08.03.2016 00:10 -4,4 C -5,0 C 78 % 1004,8 hPa 0,0 mm 0,0 km/h (0 Bft) SO 135 0 min -7,6 C 0,0 km/h (0 Bft)
08.03.2016 00:15 -4,2 C -4,8 C 78 % 1004,8 hPa 0,0 mm 0,0 km/h (0 Bft) SO 135 0 min -7,4 C 0,0 km/h (0 Bft)
08.03.2016 00:20 -4,3 C -4,8 C 78 % 1004,8 hPa 0,0 mm 0,0 km/h (0 Bft) O-NO 67 0 min -7,5 C 0,0 km/h (0 Bft)
08.03.2016 00:25 -4,7 C -5,1 C 78 % 1004,8 hPa 0,0 mm 0,0 km/h (0 Bft) O-NO 67 0 min -7,9 C 0,0 km/h (0 Bft)
08.03.2016 00:30 -4,7 C -5,1 C 78 % 1004,9 hPa 0,0 mm 0,0 km/h (0 Bft) O-NO 67 0 min -7,9 C 0,0 km/h (0 Bft)
08.03.2016 00:35 -4,7 C -5,1 C 78 % 1004,9 hPa 0,0 mm 0,0 km/h (0 Bft) SO 135 0 min -7,9 C 0,0 km/h (0 Bft)
08.03.2016 00:40 -4,4 C -4,9 C 79 % 1004,9 hPa 0,0 mm 0,0 km/h (0 Bft) O 90 0 min -7,5 C 0,0 km/h (0 Bft)
08.03.2016 00:45 -4,6 C -5,1 C 79 % 1004,9 hPa 0,0 mm 0,0 km/h (0 Bft) O-NO 67 0 min -7,7 C 0,0 km/h (0 Bft)
08.03.2016 00:50 -4,9 C -5,3 C 79 % 1005,0 hPa 0,0 mm 0,0 km/h (0 Bft) O-NO 67 0 min -8,0 C 0,0 km/h (0 Bft)
08.03.2016 00:55 -5,1 C -5,5 C 78 % 1005,0 hPa 0,0 mm 0,0 km/h (0 Bft) O-NO 67 0 min -8,3 C 0,0 km/h (0 Bft)
08.03.2016 01:00 -4,8 C -5,3 C 79 % 1005,0 hPa 0,0 mm 0,0 km/h (0 Bft) O-NO 67 0 min -7,9 C 0,0 km/h (0 Bft)
08.03.2016 01:05 -5,1 C -5,6 C 78 % 1005,0 hPa 0,0 mm 0,0 km/h (0 Bft) O-NO 67 0 min -8,3 C 0,0 km/h (0 Bft)
08.03.2016 01:10 -5,0 C -5,5 C 78 % 1005,4 hPa 0,0 mm 0,0 km/h (0 Bft) O-NO 67 0 min -8,2 C 0,0 km/h (0 Bft)
08.03.2016 01:15 -5,0 C -5,5 C 79 % 1005,4 hPa 0,0 mm 0,0 km/h (0 Bft) O-NO 67 0 min -8,1 C 0,0 km/h (0 Bft)
08.03.2016 01:20 -5,2 C -5,6 C 79 % 1005,4 hPa 0,0 mm 0,0 km/h (0 Bft) O-NO 67 0 min -8,3 C 0,0 km/h (0 Bft)
08.03.2016 01:25 -5,1 C -5,5 C 79 % 1005,4 hPa 0,0 mm 0,0 km/h (0 Bft) O-NO 67 0 min -8,2 C 0,0 km/h (0 Bft)
08.03.2016 01:30 -5,0 C -5,4 C 79 % 1005,3 hPa 0,0 mm 0,0 km/h (0 Bft) NO 45 0 min -8,1 C 0,0 km/h (0 Bft)
08.03.2016 01:35 -5,2 C -5,5 C 79 % 1005,3 hPa 0,0 mm 0,0 km/h (0 Bft) NO 45 0 min -8,3 C 0,0 km/h (0 Bft)
08.03.2016 01:40 -5,1 C -5,4 C 79 % 1005,3 hPa 0,0 mm 0,0 km/h (0 Bft) NO 45 0 min -8,2 C 0,0 km/h (0 Bft)
08.03.2016 01:45 -4,8 C -5,2 C 79 % 1005,3 hPa 0,0 mm 0,0 km/h (0 Bft) O-NO 67 0 min -7,9 C 0,0 km/h (0 Bft)
08.03.2016 01:50 -4,5 C -5,0 C 80 % 1005,7 hPa 0,0 mm 0,0 km/h (0 Bft) O 90 0 min -7,4 C 0,0 km/h (0 Bft)
08.03.2016 01:55 -4,3 C -4,8 C 81 % 1005,7 hPa 0,0 mm 0,0 km/h (0 Bft) O-SO 112 0 min -7,1 C 0,0 km/h (0 Bft)
08.03.2016 02:00 -4,5 C -4,9 C 81 % 1005,7 hPa 0,0 mm 0,0 km/h (0 Bft) O-SO 112 0 min -7,3 C 0,0 km/h (0 Bft)
08.03.2016 02:05 -4,8 C -5,2 C 80 % 1005,7 hPa 0,0 mm 0,0 km/h (0 Bft) NO 45 0 min -7,7 C 0,0 km/h (0 Bft)
08.03.2016 02:10 -5,0 C -5,3 C 80 % 1005,6 hPa 0,0 mm 0,0 km/h (0 Bft) NO 45 0 min -7,9 C 0,0 km/h (0 Bft)
08.03.2016 02:15 -4,7 C -5,1 C 80 % 1005,6 hPa 0,0 mm 0,0 km/h (0 Bft) O-SO 112 0 min -7,6 C 0,0 km/h (0 Bft)
08.03.2016 02:20 -4,8 C -5,2 C 80 % 1005,6 hPa 0,0 mm 0,0 km/h (0 Bft) O-SO 112 0 min -7,7 C 0,0 km/h (0 Bft)
08.03.2016 02:25 -4,8 C -5,2 C 80 % 1005,6 hPa 0,0 mm 0,0 km/h (0 Bft) O-NO 67 0 min -7,7 C 0,0 km/h (0 Bft)
08.03.2016 02:30 -4,7 C -5,1 C 80 % 1005,6 hPa 0,0 mm 0,0 km/h (0 Bft) O-NO 67 0 min -7,6 C 0,0 km/h (0 Bft)
08.03.2016 02:35 -4,8 C -5,2 C 80 % 1005,6 hPa 0,0 mm 0,0 km/h (0 Bft) O-NO 67 0 min -7,7 C 0,0 km/h (0 Bft)
08.03.2016 02:40 -4,8 C -5,2 C 80 % 1005,6 hPa 0,0 mm 0,0 km/h (0 Bft) O-NO 67 0 min -7,7 C 0,0 km/h (0 Bft)
08.03.2016 02:45 -4,7 C -5,1 C 81 % 1005,6 hPa 0,0 mm 0,0 km/h (0 Bft) O 90 0 min -7,4 C 0,0 km/h (0 Bft)
08.03.2016 02:48 -4,7 C -5,1 C 81 % 1005,6 hPa 0,0 mm 0,0 km/h (0 Bft) O 90 0 min -7,4 C 0,0 km/h (0 Bft)
08.03.2016 02:50 -4,8 C -5,2 C 80 % 1005,6 hPa 0,0 mm 0,0 km/h (0 Bft) O-NO 67 0 min -7,7 C 0,0 km/h (0 Bft)
08.03.2016 02:55 -5,2 C -5,5 C 80 % 1005,6 hPa 0,0 mm 0,0 km/h (0 Bft) O-NO 67 0 min -8,1 C 0,0 km/h (0 Bft)
08.03.2016 03:00 -5,0 C -5,4 C 80 % 1005,6 hPa 0,0 mm 0,0 km/h (0 Bft) O-NO 67 0 min -7,9 C 0,0 km/h (0 Bft)
08.03.2016 03:05 -4,9 C -5,3 C 81 % 1005,6 hPa 0,0 mm 0,0 km/h (0 Bft) O-SO 112 0 min -7,6 C 0,0 km/h (0 Bft)
08.03.2016 03:10 -4,8 C -5,2 C 81 % 1005,8 hPa 0,0 mm 0,0 km/h (0 Bft) O-SO 112 0 min -7,5 C 0,0 km/h (0 Bft)
08.03.2016 03:15 -5,3 C -5,6 C 80 % 1005,8 hPa 0,0 mm 0,0 km/h (0 Bft) O-NO 67 0 min -8,2 C 0,0 km/h (0 Bft)
08.03.2016 03:20 -5,2 C -5,6 C 80 % 1005,8 hPa 0,0 mm 0,0 km/h (0 Bft) O-NO 67 0 min -8,1 C 0,0 km/h (0 Bft)
08.03.2016 03:25 -4,9 C -5,4 C 81 % 1005,8 hPa 0,0 mm 0,0 km/h (0 Bft) O-SO 112 0 min -7,6 C 0,0 km/h (0 Bft)
08.03.2016 03:30 -4,9 C -5,4 C 81 % 1005,9 hPa 0,0 mm 0,0 km/h (0 Bft) O 90 0 min -7,6 C 0,0 km/h (0 Bft)
08.03.2016 03:35 -5,2 C -5,6 C 81 % 1005,9 hPa 0,0 mm 0,0 km/h (0 Bft) O 90 0 min -7,9 C 0,0 km/h (0 Bft)
08.03.2016 03:40 -5,4 C -5,8 C 80 % 1005,9 hPa 0,0 mm 0,0 km/h (0 Bft) O 90 0 min -8,3 C 0,0 km/h (0 Bft)
08.03.2016 03:45 -5,0 C -5,5 C 81 % 1005,9 hPa 0,0 mm 0,6 km/h (0 Bft) O-SO 112 0 min -7,7 C 0,0 km/h (0 Bft)
08.03.2016 03:50 -4,9 C -5,4 C 81 % 1005,9 hPa 0,0 mm 0,6 km/h (0 Bft) O-NO 67 0 min -7,6 C 0,0 km/h (0 Bft)
08.03.2016 03:55 -5,4 C -5,7 C 81 % 1005,9 hPa 0,0 mm 0,0 km/h (0 Bft) N-NW 337 0 min -8,1 C 0,0 km/h (0 Bft)
08.03.2016 04:00 -5,3 C -5,7 C 81 % 1005,9 hPa 0,0 mm 0,0 km/h (0 Bft) O-NO 67 0 min -8,0 C 0,0 km/h (0 Bft)
08.03.2016 04:05 -5,2 C -5,7 C 81 % 1005,9 hPa 0,0 mm 0,0 km/h (0 Bft) O-NO 67 0 min -7,9 C 0,0 km/h (0 Bft)
08.03.2016 04:10 -5,5 C -5,9 C 81 % 1006,2 hPa 0,0 mm 0,0 km/h (0 Bft) O-NO 67 0 min -8,2 C 0,0 km/h (0 Bft)
08.03.2016 04:15 -5,7 C -6,1 C 80 % 1006,2 hPa 0,0 mm 0,0 km/h (0 Bft) O-NO 67 0 min -8,6 C 0,0 km/h (0 Bft)
08.03.2016 04:20 -5,4 C -5,9 C 81 % 1006,2 hPa 0,0 mm 0,0 km/h (0 Bft) O-SO 112 0 min -8,1 C 0,0 km/h (0 Bft)
08.03.2016 04:25 -5,3 C -5,8 C 81 % 1006,2 hPa 0,0 mm 0,0 km/h (0 Bft) O-NO 67 0 min -8,0 C 0,0 km/h (0 Bft)
08.03.2016 04:30 -5,5 C -6,0 C 81 % 1006,4 hPa 0,0 mm 0,0 km/h (0 Bft) S-SO 157 0 min -8,2 C 0,0 km/h (0 Bft)
08.03.2016 04:35 -5,3 C -5,9 C 81 % 1006,4 hPa 0,0 mm 0,0 km/h (0 Bft) O-SO 112 0 min -8,0 C 0,0 km/h (0 Bft)
08.03.2016 04:40 -5,2 C -5,8 C 81 % 1006,4 hPa 0,0 mm 0,0 km/h (0 Bft) O-SO 112 0 min -7,9 C 0,0 km/h (0 Bft)
08.03.2016 04:45 -5,2 C -5,8 C 82 % 1006,4 hPa 0,0 mm 0,0 km/h (0 Bft) W-SW 247 0 min -7,8 C 0,0 km/h (0 Bft)
08.03.2016 04:50 -5,1 C -5,7 C 82 % 1006,8 hPa 0,0 mm 0,9 km/h (0 Bft) SW 225 0 min -7,7 C 8,9 km/h (2 Bft)
08.03.2016 04:55 -4,8 C -5,3 C 82 % 1006,8 hPa 0,0 mm 3,6 km/h (1 Bft) SW 225 0 min -7,4 C 7,2 km/h (2 Bft)
08.03.2016 05:00 -4,7 C -5,4 C 82 % 1006,8 hPa 0,0 mm 5,7 km/h (1 Bft) SW 225 0 min -7,3 C 11,6 km/h (2 Bft)
08.03.2016 05:05 -4,5 C -5,3 C 82 % 1006,8 hPa 0,0 mm 6,6 km/h (2 Bft) S-SW 202 0 min -7,1 C 3,0 km/h (1 Bft)
08.03.2016 05:10 -4,5 C -4,9 C 82 % 1006,7 hPa 0,0 mm 3,9 km/h (1 Bft) W-SW 247 0 min -7,1 C 11,9 km/h (2 Bft)
08.03.2016 05:15 -4,5 C -4,8 C 82 % 1006,7 hPa 0,0 mm 1,2 km/h (1 Bft) SW 225 0 min -7,1 C 4,5 km/h (1 Bft)
08.03.2016 05:20 -4,4 C -4,7 C 81 % 1006,7 hPa 0,0 mm 3,6 km/h (1 Bft) S 180 0 min -7,2 C 8,0 km/h (2 Bft)
08.03.2016 05:25 -4,2 C -4,8 C 81 % 1006,7 hPa 0,0 mm 5,7 km/h (1 Bft) SW 225 0 min -7,0 C 4,8 km/h (1 Bft)
08.03.2016 05:30 -4,1 C -4,8 C 81 % 1006,8 hPa 0,0 mm 6,3 km/h (2 Bft) SW 225 0 min -6,9 C 11,0 km/h (2 Bft)
08.03.2016 05:35 -3,7 C -4,7 C 81 % 1006,8 hPa 0,0 mm 7,7 km/h (2 Bft) S-SW 202 0 min -6,5 C 7,2 km/h (2 Bft)
08.03.2016 05:40 -3,7 C -4,7 C 81 % 1006,8 hPa 0,0 mm 8,0 km/h (2 Bft) S 180 0 min -6,5 C 12,8 km/h (3 Bft)
08.03.2016 05:45 -3,5 C -4,3 C 81 % 1006,8 hPa 0,0 mm 6,9 km/h (2 Bft) S 180 0 min -6,3 C 8,9 km/h (2 Bft)
08.03.2016 05:49 -3,5 C -4,3 C 81 % 1006,8 hPa 0,0 mm 6,9 km/h (2 Bft) S 180 0 min -6,3 C 8,9 km/h (2 Bft)
08.03.2016 05:50 -3,5 C -4,2 C 80 % 1007,3 hPa 0,0 mm 6,6 km/h (2 Bft) SW 225 0 min -6,4 C 11,3 km/h (2 Bft)
08.03.2016 05:55 -3,4 C -4,1 C 80 % 1007,3 hPa 0,0 mm 6,6 km/h (2 Bft) SW 225 0 min -6,3 C 11,0 km/h (2 Bft)
08.03.2016 06:00 -3,4 C -4,3 C 79 % 1007,3 hPa 0,0 mm 7,7 km/h (2 Bft) W-SW 247 0 min -6,5 C 13,4 km/h (3 Bft)
08.03.2016 06:05 -3,4 C -4,4 C 79 % 1007,3 hPa 0,0 mm 9,5 km/h (2 Bft) SW 225 0 min -6,5 C 10,1 km/h (2 Bft)
08.03.2016 06:10 -3,5 C -4,4 C 79 % 1007,6 hPa 0,0 mm 8,9 km/h (2 Bft) W-NW 292 0 min -6,6 C 13,7 km/h (3 Bft)
08.03.2016 06:15 -3,5 C -4,4 C 78 % 1007,6 hPa 0,0 mm 8,0 km/h (2 Bft) SW 225 0 min -6,8 C 8,6 km/h (2 Bft)
08.03.2016 06:20 -3,5 C -4,4 C 78 % 1007,6 hPa 0,0 mm 7,7 km/h (2 Bft) S 180 0 min -6,8 C 6,3 km/h (2 Bft)
08.03.2016 06:25 -3,5 C -4,4 C 78 % 1007,6 hPa 0,0 mm 8,3 km/h (2 Bft) SW 225 0 min -6,8 C 11,3 km/h (2 Bft)
08.03.2016 06:30 -3,3 C -4,3 C 77 % 1007,8 hPa 0,0 mm 8,3 km/h (2 Bft) SW 225 0 min -6,7 C 8,0 km/h (2 Bft)
08.03.2016 06:35 -3,5 C -4,0 C 77 % 1007,8 hPa 0,0 mm 5,4 km/h (1 Bft) W 270 0 min -6,9 C 3,0 km/h (1 Bft)
08.03.2016 06:40 -3,6 C -3,8 C 77 % 1007,8 hPa 0,0 mm 2,7 km/h (1 Bft) S-SW 202 0 min -7,0 C 0,0 km/h (0 Bft)
08.03.2016 06:45 -3,4 C -3,7 C 77 % 1007,8 hPa 0,0 mm 1,8 km/h (1 Bft) SW 225 0 min -6,8 C 3,6 km/h (1 Bft)
08.03.2016 06:50 -3,3 C -3,6 C 77 % 1008,2 hPa 0,0 mm 1,8 km/h (1 Bft) SW 225 0 min -6,7 C 3,0 km/h (1 Bft)
08.03.2016 06:55 -3,2 C -3,5 C 77 % 1008,2 hPa 0,0 mm 3,3 km/h (1 Bft) SW 225 0 min -6,6 C 7,2 km/h (2 Bft)
08.03.2016 07:00 -3,1 C -3,5 C 77 % 1008,2 hPa 0,0 mm 4,2 km/h (1 Bft) S 180 0 min -6,5 C 4,5 km/h (1 Bft)
08.03.2016 07:05 -3,0 C -3,5 C 76 % 1008,2 hPa 0,0 mm 5,1 km/h (1 Bft) W-SW 247 0 min -6,6 C 9,2 km/h (2 Bft)
08.03.2016 07:10 -2,8 C -3,4 C 76 % 1008,5 hPa 0,0 mm 5,7 km/h (1 Bft) W 270 0 min -6,4 C 3,9 km/h (1 Bft)
08.03.2016 07:15 -2,8 C -3,2 C 76 % 1008,5 hPa 0,0 mm 4,8 km/h (1 Bft) SW 225 0 min -6,4 C 7,2 km/h (2 Bft)
08.03.2016 07:20 -2,7 C -2,9 C 76 % 1008,5 hPa 0,0 mm 3,9 km/h (1 Bft) W 270 0 min -6,3 C 0,0 km/h (0 Bft)
08.03.2016 07:25 -2,6 C -3,0 C 75 % 1008,5 hPa 0,0 mm 4,8 km/h (1 Bft) W 270 0 min -6,4 C 8,3 km/h (2 Bft)
08.03.2016 07:30 -2,5 C -2,7 C 75 % 1008,8 hPa 0,0 mm 3,3 km/h (1 Bft) SW 225 0 min -6,3 C 14,0 km/h (3 Bft)
08.03.2016 07:35 -2,4 C -2,6 C 75 % 1008,8 hPa 0,0 mm 3,0 km/h (1 Bft) W-SW 247 0 min -6,2 C 3,9 km/h (1 Bft)
08.03.2016 07:40 -2,3 C -2,5 C 75 % 1008,8 hPa 0,0 mm 3,9 km/h (1 Bft) W-NW 292 0 min -6,1 C 7,5 km/h (2 Bft)
08.03.2016 07:45 -2,2 C -2,5 C 75 % 1008,8 hPa 0,0 mm 4,8 km/h (1 Bft) S-SO 157 0 min -6,0 C 0,0 km/h (0 Bft)
08.03.2016 07:50 -2,0 C -2,3 C 75 % 1008,9 hPa 0,0 mm 4,5 km/h (1 Bft) W-SW 247 0 min -5,8 C 5,4 km/h (1 Bft)
08.03.2016 07:55 -1,9 C -2,1 C 74 % 1008,9 hPa 0,0 mm 3,6 km/h (1 Bft) NW 315 0 min -5,9 C 6,0 km/h (2 Bft)
08.03.2016 08:00 -1,8 C -2,0 C 74 % 1008,9 hPa 0,0 mm 3,0 km/h (1 Bft) O-NO 67 0 min -5,8 C 0,0 km/h (0 Bft)
08.03.2016 08:05 -1,7 C -1,8 C 74 % 1008,9 hPa 0,0 mm 3,0 km/h (1 Bft) SW 225 0 min -5,7 C 0,0 km/h (0 Bft)
08.03.2016 08:10 -1,6 C -1,7 C 74 % 1009,4 hPa 0,0 mm 2,1 km/h (1 Bft) NO 45 0 min -5,6 C 0,0 km/h (0 Bft)
08.03.2016 08:15 -1,6 C -1,7 C 73 % 1009,4 hPa 0,0 mm 0,3 km/h (0 Bft) NW 315 0 min -5,8 C 0,0 km/h (0 Bft)
08.03.2016 08:20 -1,4 C -1,5 C 73 % 1009,4 hPa 0,0 mm 0,6 km/h (0 Bft) SW 225 0 min -5,6 C 0,0 km/h (0 Bft)
08.03.2016 08:25 -1,1 C -1,2 C 73 % 1009,4 hPa 0,0 mm 1,8 km/h (1 Bft) W-SW 247 0 min -5,3 C 4,5 km/h (1 Bft)
08.03.2016 08:30 -1,0 C -1,1 C 73 % 1009,7 hPa 0,0 mm 2,1 km/h (1 Bft) NW 315 0 min -5,2 C 6,6 km/h (2 Bft)
08.03.2016 08:35 -0,7 C -0,8 C 72 % 1009,7 hPa 0,0 mm 3,9 km/h (1 Bft) W 270 0 min -5,1 C 11,3 km/h (2 Bft)
08.03.2016 08:40 -0,4 C -0,6 C 72 % 1009,7 hPa 0,0 mm 3,9 km/h (1 Bft) W 270 0 min -4,8 C 3,6 km/h (1 Bft)
08.03.2016 08:45 -0,2 C -0,4 C 70 % 1009,7 hPa 0,0 mm 5,1 km/h (1 Bft) SW 225 0 min -5,0 C 14,3 km/h (3 Bft)
08.03.2016 08:50 0,0 C -0,1 C 70 % 1010,0 hPa 0,0 mm 5,1 km/h (1 Bft) W-SW 247 0 min -4,8 C 5,1 km/h (1 Bft)
08.03.2016 08:55 0,0 C 0,3 C 69 % 1010,0 hPa 0,0 mm 5,1 km/h (1 Bft) W 270 0 min -5,0 C 3,3 km/h (1 Bft)
08.03.2016 09:00 0,0 C 0,1 C 68 % 1010,0 hPa 0,0 mm 5,7 km/h (1 Bft) N-NW 337 0 min -5,2 C 8,9 km/h (2 Bft)
08.03.2016 09:05 0,0 C 0,3 C 67 % 1010,0 hPa 0,0 mm 6,3 km/h (2 Bft) W-SW 247 0 min -5,4 C 14,3 km/h (3 Bft)
08.03.2016 09:10 0,0 C 0,4 C 66 % 1010,4 hPa 0,0 mm 6,6 km/h (2 Bft) W 270 0 min -5,6 C 11,0 km/h (2 Bft)
08.03.2016 09:15 0,0 C 0,8 C 67 % 1010,4 hPa 0,0 mm 6,0 km/h (2 Bft) SO 135 0 min -5,4 C 6,9 km/h (2 Bft)
08.03.2016 09:20 0,0 C 0,9 C 66 % 1010,4 hPa 0,0 mm 5,7 km/h (1 Bft) W 270 0 min -5,6 C 11,6 km/h (2 Bft)
08.03.2016 09:25 0,0 C 1,2 C 66 % 1010,4 hPa 0,0 mm 5,1 km/h (1 Bft) W-SW 247 0 min -5,6 C 4,8 km/h (1 Bft)
08.03.2016 09:30 0,0 C 1,1 C 65 % 1010,7 hPa 0,0 mm 5,7 km/h (1 Bft) NW 315 0 min -5,8 C 14,3 km/h (3 Bft)
08.03.2016 09:35 0,0 C 0,7 C 63 % 1010,7 hPa 0,0 mm 7,7 km/h (2 Bft) W 270 0 min -6,2 C 13,1 km/h (3 Bft)
08.03.2016 09:40 0,0 C 0,5 C 63 % 1010,7 hPa 0,0 mm 9,5 km/h (2 Bft) W 270 0 min -6,2 C 15,2 km/h (3 Bft)
08.03.2016 09:45 -0,5 C 0,6 C 70 % 1010,7 hPa 0,0 mm 9,8 km/h (2 Bft) W-NW 292 0 min -5,3 C 6,3 km/h (2 Bft)
08.03.2016 09:50 -0,5 C 0,4 C 70 % 1010,9 hPa 0,0 mm 9,5 km/h (2 Bft) W 270 0 min -5,3 C 19,1 km/h (3 Bft)
08.03.2016 09:55 -0,5 C 0,6 C 70 % 1010,9 hPa 0,0 mm 8,3 km/h (2 Bft) W 270 0 min -5,3 C 9,5 km/h (2 Bft)
08.03.2016 10:00 -0,5 C 0,7 C 70 % 1010,9 hPa 0,0 mm 7,7 km/h (2 Bft) W-SW 247 0 min -5,3 C 7,2 km/h (2 Bft)
08.03.2016 10:05 -0,3 C 0,6 C 70 % 1010,9 hPa 0,0 mm 9,5 km/h (2 Bft) W-SW 247 0 min -5,1 C 12,2 km/h (2 Bft)
08.03.2016 10:10 -0,3 C 0,9 C 70 % 1011,1 hPa 0,0 mm 9,5 km/h (2 Bft) W 270 0 min -5,1 C 13,1 km/h (3 Bft)
08.03.2016 10:15 -0,1 C 1,8 C 70 % 1011,1 hPa 0,0 mm 8,6 km/h (2 Bft) W 270 0 min -4,9 C 7,2 km/h (2 Bft)
08.03.2016 10:20 0,2 C 2,2 C 69 % 1011,1 hPa 0,0 mm 8,6 km/h (2 Bft) W-NW 292 0 min -4,8 C 17,6 km/h (3 Bft)
08.03.2016 10:25 0,2 C 2,2 C 69 % 1011,1 hPa 0,0 mm 9,5 km/h (2 Bft) W-NW 292 0 min -4,8 C 12,5 km/h (3 Bft)
08.03.2016 10:30 0,4 C 2,4 C 69 % 1011,4 hPa 0,0 mm 10,7 km/h (2 Bft) W-NW 292 0 min -4,6 C 18,2 km/h (3 Bft)
08.03.2016 10:35 0,6 C 2,9 C 69 % 1011,4 hPa 0,0 mm 11,0 km/h (2 Bft) W 270 0 min -4,4 C 10,1 km/h (2 Bft)
08.03.2016 10:40 0,7 C 3,0 C 69 % 1011,4 hPa 0,0 mm 11,3 km/h (2 Bft) W 270 0 min -4,3 C 16,4 km/h (3 Bft)
08.03.2016 10:45 0,7 C 2,8 C 68 % 1011,4 hPa 0,0 mm 11,3 km/h (2 Bft) NW 315 0 min -4,5 C 15,2 km/h (3 Bft)
08.03.2016 10:50 0,4 C 2,1 C 68 % 1011,6 hPa 0,0 mm 11,0 km/h (2 Bft) S-SO 157 0 min -4,8 C 20,9 km/h (4 Bft)
08.03.2016 10:55 0,0 C 1,0 C 68 % 1011,6 hPa 0,0 mm 10,7 km/h (2 Bft) NW 315 0 min -5,2 C 7,5 km/h (2 Bft)
08.03.2016 11:00 0,0 C 1,0 C 68 % 1011,6 hPa 0,0 mm 8,9 km/h (2 Bft) NW 315 0 min -5,2 C 8,0 km/h (2 Bft)
08.03.2016 11:05 0,0 C 1,1 C 68 % 1011,6 hPa 0,0 mm 6,9 km/h (2 Bft) NW 315 0 min -5,2 C 14,6 km/h (3 Bft)
08.03.2016 11:10 0,0 C 1,0 C 68 % 1011,9 hPa 0,0 mm 7,2 km/h (2 Bft) W-SW 247 0 min -5,2 C 10,1 km/h (2 Bft)
08.03.2016 11:15 0,0 C 1,4 C 68 % 1011,9 hPa 0,0 mm 7,2 km/h (2 Bft) W-NW 292 0 min -5,2 C 10,7 km/h (2 Bft)
08.03.2016 11:20 0,0 C 1,4 C 69 % 1011,9 hPa 0,0 mm 6,3 km/h (2 Bft) W 270 0 min -5,0 C 6,9 km/h (2 Bft)
08.03.2016 11:25 0,2 C 1,4 C 69 % 1011,9 hPa 0,0 mm 6,6 km/h (2 Bft) W-NW 292 0 min -4,8 C 8,6 km/h (2 Bft)
08.03.2016 11:30 0,3 C 1,6 C 69 % 1011,9 hPa 0,0 mm 6,9 km/h (2 Bft) W-NW 292 0 min -4,7 C 7,2 km/h (2 Bft)
08.03.2016 11:35 0,4 C 2,1 C 69 % 1011,9 hPa 0,0 mm 6,6 km/h (2 Bft) NW 315 0 min -4,6 C 6,0 km/h (2 Bft)
08.03.2016 11:40 0,5 C 2,3 C 69 % 1011,9 hPa 0,0 mm 6,3 km/h (2 Bft) W-SW 247 0 min -4,5 C 6,6 km/h (2 Bft)
08.03.2016 11:45 0,5 C 2,4 C 69 % 1011,9 hPa 0,0 mm 7,2 km/h (2 Bft) NW 315 0 min -4,5 C 8,6 km/h (2 Bft)
08.03.2016 11:49 0,6 C 2,6 C 69 % 1011,9 hPa 0,0 mm 7,5 km/h (2 Bft) N-NW 337 0 min -4,4 C 5,7 km/h (1 Bft)
08.03.2016 11:51 0,6 C 2,6 C 69 % 1011,9 hPa 0,0 mm 7,5 km/h (2 Bft) N-NW 337 0 min -4,4 C 5,7 km/h (1 Bft)
08.03.2016 11:55 0,7 C 3,4 C 69 % 1011,9 hPa 0,0 mm 5,4 km/h (1 Bft) W-NW 292 0 min -4,3 C 9,2 km/h (2 Bft)
08.03.2016 12:00 0,6 C 3,8 C 69 % 1011,9 hPa 0,0 mm 3,9 km/h (1 Bft) SW 225 0 min -4,4 C 5,4 km/h (1 Bft)
08.03.2016 12:05 0,8 C 4,3 C 69 % 1011,9 hPa 0,0 mm 3,0 km/h (1 Bft) NW 315 0 min -4,2 C 4,2 km/h (1 Bft)
08.03.2016 12:10 0,8 C 4,8 C 69 % 1012,1 hPa 0,0 mm 3,3 km/h (1 Bft) W-SW 247 0 min -4,2 C 4,2 km/h (1 Bft)
08.03.2016 12:15 0,9 C 5,1 C 69 % 1012,1 hPa 0,0 mm 4,5 km/h (1 Bft) N-NW 337 0 min -4,1 C 4,8 km/h (1 Bft)
08.03.2016 12:20 1,1 C 5,3 C 69 % 1012,1 hPa 0,0 mm 4,2 km/h (1 Bft) W-NW 292 0 min -3,9 C 7,2 km/h (2 Bft)
08.03.2016 12:25 1,5 C 5,6 C 68 % 1012,1 hPa 0,0 mm 4,2 km/h (1 Bft) NW 315 0 min -3,7 C 4,5 km/h (1 Bft)
08.03.2016 12:30 1,5 C 5,6 C 68 % 1012,2 hPa 0,0 mm 4,5 km/h (1 Bft) N-NW 337 0 min -3,7 C 3,9 km/h (1 Bft)
08.03.2016 12:35 1,7 C 5,8 C 68 % 1012,2 hPa 0,0 mm 4,2 km/h (1 Bft) W-NW 292 0 min -3,6 C 5,7 km/h (1 Bft)
08.03.2016 12:40 1,7 C 5,8 C 68 % 1012,2 hPa 0,0 mm 4,5 km/h (1 Bft) SW 225 0 min -3,6 C 3,9 km/h (1 Bft)
08.03.2016 12:45 1,5 C 6,2 C 67 % 1012,2 hPa 0,0 mm 4,8 km/h (1 Bft) NW 315 0 min -3,9 C 3,0 km/h (1 Bft)
08.03.2016 12:50 1,8 C 6,6 C 67 % 1012,4 hPa 0,0 mm 5,4 km/h (1 Bft) NW 315 0 min -3,7 C 8,9 km/h (2 Bft)
08.03.2016 12:55 1,7 C 5,2 C 67 % 1012,4 hPa 0,0 mm 8,9 km/h (2 Bft) N-NO 22 0 min -3,8 C 16,1 km/h (3 Bft)
08.03.2016 13:00 1,3 C 3,2 C 67 % 1012,4 hPa 0,0 mm 11,3 km/h (2 Bft) N-NO 22 0 min -4,1 C 5,1 km/h (1 Bft)
08.03.2016 13:05 0,7 C 0,7 C 69 % 1012,4 hPa 0,0 mm 12,8 km/h (3 Bft) NW 315 0 min -4,3 C 22,1 km/h (4 Bft)
08.03.2016 13:10 0,5 C 0,0 C 69 % 1012,8 hPa 0,0 mm 12,2 km/h (2 Bft) N-NW 337 0 min -4,5 C 28,6 km/h (4 Bft)
08.03.2016 13:15 0,7 C 0,3 C 69 % 1012,8 hPa 0,0 mm 8,9 km/h (2 Bft) N-NW 337 0 min -4,3 C 14,3 km/h (3 Bft)
08.03.2016 13:20 -0,6 C 0,6 C 72 % 1012,8 hPa 0,0 mm 6,0 km/h (2 Bft) O 90 0 min -5,0 C 5,4 km/h (1 Bft)
08.03.2016 13:25 -0,6 C 1,3 C 73 % 1012,8 hPa 0,0 mm 4,8 km/h (1 Bft) O 90 0 min -4,8 C 4,8 km/h (1 Bft)
08.03.2016 13:30 -0,3 C 1,7 C 73 % 1012,6 hPa 0,0 mm 4,2 km/h (1 Bft) O-NO 67 0 min -4,5 C 3,6 km/h (1 Bft)
08.03.2016 13:35 0,2 C 3,2 C 74 % 1012,6 hPa 0,0 mm 2,4 km/h (1 Bft) O-NO 67 0 min -3,9 C 8,9 km/h (2 Bft)
08.03.2016 13:40 0,3 C 3,4 C 73 % 1012,6 hPa 0,0 mm 3,6 km/h (1 Bft) N-NO 22 0 min -4,0 C 6,0 km/h (2 Bft)
08.03.2016 13:45 0,3 C 3,9 C 73 % 1012,6 hPa 0,0 mm 5,1 km/h (1 Bft) S 180 0 min -4,0 C 6,3 km/h (2 Bft)
08.03.2016 13:50 0,2 C 4,0 C 73 % 1012,2 hPa 0,0 mm 5,1 km/h (1 Bft) O-NO 67 0 min -4,1 C 6,0 km/h (2 Bft)
08.03.2016 13:55 0,2 C 4,3 C 73 % 1012,2 hPa 0,0 mm 4,8 km/h (1 Bft) O-NO 67 0 min -4,1 C 3,6 km/h (1 Bft)
08.03.2016 14:00 0,6 C 4,8 C 72 % 1012,2 hPa 0,0 mm 3,6 km/h (1 Bft) O-NO 67 0 min -3,9 C 5,4 km/h (1 Bft)
08.03.2016 14:05 0,9 C 5,7 C 72 % 1012,2 hPa 0,7 mm 1,2 km/h (1 Bft) NW 315 0 min -3,6 C 4,5 km/h (1 Bft)
08.03.2016 14:10 1,0 C 5,7 C 71 % 1012,9 hPa 0,0 mm 2,4 km/h (1 Bft) W 270 0 min -3,7 C 4,2 km/h (1 Bft)
08.03.2016 14:15 0,9 C 4,4 C 71 % 1012,9 hPa 0,0 mm 6,3 km/h (2 Bft) NW 315 0 min -3,7 C 12,8 km/h (3 Bft)
08.03.2016 14:20 0,6 C 3,2 C 70 % 1012,9 hPa 0,0 mm 7,2 km/h (2 Bft) NW 315 0 min -4,2 C 6,0 km/h (2 Bft)
08.03.2016 14:25 0,6 C 2,4 C 71 % 1012,9 hPa 0,0 mm 8,0 km/h (2 Bft) NW 315 0 min -4,0 C 7,5 km/h (2 Bft)
08.03.2016 14:30 0,7 C 2,9 C 71 % 1012,9 hPa 0,0 mm 6,9 km/h (2 Bft) NW 315 0 min -3,9 C 9,2 km/h (2 Bft)
08.03.2016 14:35 0,7 C 3,5 C 71 % 1012,9 hPa 0,0 mm 6,0 km/h (2 Bft) W-SW 247 0 min -3,9 C 7,5 km/h (2 Bft)
08.03.2016 14:40 0,8 C 4,4 C 71 % 1012,9 hPa 0,0 mm 4,8 km/h (1 Bft) NW 315 0 min -3,8 C 3,9 km/h (1 Bft)
08.03.2016 14:45 1,5 C 5,9 C 71 % 1012,9 hPa 0,0 mm 2,7 km/h (1 Bft) N-NO 22 0 min -3,2 C 6,3 km/h (2 Bft)
08.03.2016 14:50 1,1 C 5,8 C 69 % 1012,9 hPa 0,0 mm 1,8 km/h (1 Bft) O-SO 112 5 min -3,9 C 0,0 km/h (0 Bft)
08.03.2016 14:52 1,1 C 5,8 C 69 % 1012,9 hPa 0,0 mm 1,8 km/h (1 Bft) O-SO 112 2 min -3,9 C 0,0 km/h (0 Bft)
08.03.2016 14:55 1,1 C 6,2 C 70 % 1012,9 hPa 0,0 mm 0,6 km/h (0 Bft) W-NW 292 3 min -3,7 C 4,5 km/h (1 Bft)
08.03.2016 15:00 1,3 C 6,4 C 70 % 1012,9 hPa 0,0 mm 2,1 km/h (1 Bft) N-NW 337 5 min -3,6 C 8,6 km/h (2 Bft)
08.03.2016 15:05 1,4 C 6,2 C 69 % 1012,9 hPa 0,0 mm 1,8 km/h (1 Bft) N-NW 337 0 min -3,7 C 0,0 km/h (0 Bft)
08.03.2016 15:10 1,7 C 6,9 C 69 % 1013,1 hPa 0,0 mm 0,6 km/h (0 Bft) NW 315 0 min -3,4 C 0,0 km/h (0 Bft)
08.03.2016 15:15 1,8 C 6,8 C 69 % 1013,1 hPa 0,0 mm 2,4 km/h (1 Bft) W-NW 292 0 min -3,3 C 3,6 km/h (1 Bft)
08.03.2016 15:20 1,4 C 5,9 C 68 % 1013,1 hPa 0,0 mm 5,1 km/h (1 Bft) W 270 5 min -3,8 C 12,5 km/h (3 Bft)
08.03.2016 15:25 0,8 C 3,7 C 69 % 1013,1 hPa 0,0 mm 6,9 km/h (2 Bft) W 270 0 min -4,2 C 10,1 km/h (2 Bft)
08.03.2016 15:30 0,6 C 2,9 C 69 % 1013,2 hPa 0,0 mm 6,3 km/h (2 Bft) W 270 0 min -4,4 C 6,6 km/h (2 Bft)
08.03.2016 15:35 0,5 C 2,9 C 70 % 1013,2 hPa 0,0 mm 4,5 km/h (1 Bft) S-SW 202 0 min -4,3 C 5,7 km/h (1 Bft)
08.03.2016 15:40 0,7 C 3,5 C 70 % 1013,2 hPa 0,0 mm 4,2 km/h (1 Bft) W 270 0 min -4,1 C 4,5 km/h (1 Bft)
08.03.2016 15:45 0,9 C 3,4 C 70 % 1013,2 hPa 0,0 mm 6,9 km/h (2 Bft) NW 315 0 min -3,9 C 6,6 km/h (2 Bft)
08.03.2016 15:50 0,9 C 2,6 C 70 % 1013,2 hPa 0,0 mm 8,0 km/h (2 Bft) W 270 0 min -3,9 C 8,0 km/h (2 Bft)
08.03.2016 15:55 0,6 C 1,9 C 70 % 1013,2 hPa 0,0 mm 7,2 km/h (2 Bft) W-NW 292 0 min -4,2 C 8,0 km/h (2 Bft)
08.03.2016 16:00 0,2 C 1,6 C 70 % 1013,2 hPa 0,0 mm 6,0 km/h (2 Bft) W-SW 247 0 min -4,6 C 10,1 km/h (2 Bft)
08.03.2016 16:05 -0,2 C 0,9 C 71 % 1013,2 hPa 0,0 mm 4,8 km/h (1 Bft) S 180 0 min -4,8 C 9,5 km/h (2 Bft)
08.03.2016 16:10 -0,5 C 0,3 C 71 % 1013,2 hPa 0,0 mm 6,6 km/h (2 Bft) W-SW 247 0 min -5,1 C 10,1 km/h (2 Bft)
08.03.2016 16:15 -0,3 C 0,3 C 72 % 1013,2 hPa 0,0 mm 8,9 km/h (2 Bft) W 270 0 min -4,7 C 8,9 km/h (2 Bft)
08.03.2016 16:20 -0,3 C 0,5 C 72 % 1013,2 hPa 0,0 mm 9,2 km/h (2 Bft) SW 225 0 min -4,7 C 12,8 km/h (3 Bft)
08.03.2016 16:25 -0,2 C 1,7 C 72 % 1013,2 hPa 0,0 mm 8,0 km/h (2 Bft) SW 225 0 min -4,6 C 7,2 km/h (2 Bft)
08.03.2016 16:30 -0,1 C 2,0 C 72 % 1013,2 hPa 0,0 mm 7,5 km/h (2 Bft) SW 225 0 min -4,5 C 8,3 km/h (2 Bft)
08.03.2016 16:35 0,3 C 2,7 C 72 % 1013,2 hPa 0,0 mm 6,6 km/h (2 Bft) W 270 0 min -4,1 C 6,0 km/h (2 Bft)
08.03.2016 16:40 0,3 C 3,1 C 72 % 1013,2 hPa 0,0 mm 5,1 km/h (1 Bft) SW 225 0 min -4,1 C 6,9 km/h (2 Bft)
08.03.2016 16:45 0,3 C 3,2 C 71 % 1013,2 hPa 0,0 mm 4,5 km/h (1 Bft) W-SW 247 0 min -4,3 C 5,7 km/h (1 Bft)
08.03.2016 16:50 0,3 C 3,1 C 70 % 1013,3 hPa 0,0 mm 5,4 km/h (1 Bft) SW 225 0 min -4,5 C 8,3 km/h (2 Bft)
08.03.2016 16:55 0,2 C 1,9 C 69 % 1013,3 hPa 0,0 mm 6,3 km/h (2 Bft) S-SW 202 0 min -4,8 C 9,2 km/h (2 Bft)
08.03.2016 17:00 0,0 C 1,1 C 69 % 1013,3 hPa 0,0 mm 6,9 km/h (2 Bft) W-SW 247 0 min -5,0 C 7,5 km/h (2 Bft)
08.03.2016 17:05 -0,1 C 0,4 C 68 % 1013,3 hPa 0,0 mm 6,0 km/h (2 Bft) SW 225 0 min -5,3 C 5,7 km/h (1 Bft)
08.03.2016 17:10 -0,2 C 0,2 C 68 % 1013,3 hPa 0,0 mm 5,1 km/h (1 Bft) S-SW 202 0 min -5,4 C 4,8 km/h (1 Bft)
08.03.2016 17:15 -0,2 C 0,1 C 68 % 1013,3 hPa 0,0 mm 4,2 km/h (1 Bft) W-SW 247 0 min -5,4 C 4,2 km/h (1 Bft)
08.03.2016 17:20 -0,2 C 0,0 C 67 % 1013,3 hPa 0,0 mm 3,3 km/h (1 Bft) W-SW 247 0 min -5,6 C 4,2 km/h (1 Bft)
08.03.2016 17:25 -0,3 C -0,2 C 67 % 1013,3 hPa 0,0 mm 1,8 km/h (1 Bft) SW 225 0 min -5,7 C 0,0 km/h (0 Bft)
08.03.2016 17:30 -0,5 C -0,4 C 67 % 1013,6 hPa 0,0 mm 1,2 km/h (1 Bft) SW 225 0 min -5,9 C 3,0 km/h (1 Bft)
08.03.2016 17:35 -0,5 C -0,6 C 68 % 1013,6 hPa 0,0 mm 0,3 km/h (0 Bft) S-SO 157 0 min -5,7 C 0,0 km/h (0 Bft)
08.03.2016 17:40 -0,6 C -0,8 C 68 % 1013,6 hPa 0,0 mm 0,0 km/h (0 Bft) S 180 0 min -5,8 C 0,0 km/h (0 Bft)
08.03.2016 17:45 -0,7 C -0,9 C 68 % 1013,6 hPa 0,0 mm 0,3 km/h (0 Bft) S-SO 157 0 min -5,9 C 0,0 km/h (0 Bft)
08.03.2016 17:50 -0,9 C -1,1 C 68 % 1013,4 hPa 0,0 mm 0,3 km/h (0 Bft) S-SO 157 0 min -6,0 C 0,0 km/h (0 Bft)
08.03.2016 17:52 -0,9 C -1,1 C 68 % 1013,4 hPa 0,0 mm 0,3 km/h (0 Bft) S-SO 157 0 min -6,0 C 0,0 km/h (0 Bft)
08.03.2016 17:55 -1,1 C -1,4 C 68 % 1013,4 hPa 0,0 mm 0,0 km/h (0 Bft) S-SO 157 0 min -6,2 C 0,0 km/h (0 Bft)
08.03.2016 18:00 -1,2 C -1,5 C 69 % 1013,4 hPa 0,0 mm 0,0 km/h (0 Bft) SO 135 0 min -6,1 C 0,0 km/h (0 Bft)
08.03.2016 18:05 -1,5 C -1,8 C 69 % 1013,4 hPa 0,0 mm 0,0 km/h (0 Bft) SO 135 0 min -6,4 C 0,0 km/h (0 Bft)
08.03.2016 18:10 -1,7 C -2,1 C 69 % 1013,8 hPa 0,0 mm 0,0 km/h (0 Bft) O-SO 112 0 min -6,6 C 0,0 km/h (0 Bft)
08.03.2016 18:15 -2,4 C -2,7 C 69 % 1013,8 hPa 0,0 mm 0,0 km/h (0 Bft) O-NO 67 0 min -7,3 C 0,0 km/h (0 Bft)
08.03.2016 18:20 -2,3 C -2,7 C 70 % 1013,8 hPa 0,0 mm 0,0 km/h (0 Bft) N-NW 337 0 min -7,0 C 0,0 km/h (0 Bft)
08.03.2016 18:25 -2,5 C -3,0 C 70 % 1013,8 hPa 0,0 mm 0,0 km/h (0 Bft) O-SO 112 0 min -7,2 C 0,0 km/h (0 Bft)
08.03.2016 18:30 -2,5 C -3,0 C 71 % 1014,0 hPa 0,0 mm 0,0 km/h (0 Bft) O-NO 67 0 min -7,0 C 0,0 km/h (0 Bft)
08.03.2016 18:35 -2,4 C -3,0 C 72 % 1014,0 hPa 0,0 mm 0,0 km/h (0 Bft) O-SO 112 0 min -6,7 C 0,0 km/h (0 Bft)
08.03.2016 18:45 -2,6 C -3,1 C 72 % 1014,0 hPa 0,0 mm 0,0 km/h (0 Bft) O 90 0 min -6,9 C 0,0 km/h (0 Bft)
08.03.2016 18:50 -2,7 C -3,2 C 72 % 1014,1 hPa 0,0 mm 0,0 km/h (0 Bft) O-SO 112 0 min -7,0 C 0,0 km/h (0 Bft)
08.03.2016 18:55 -2,5 C -3,0 C 72 % 1014,1 hPa 0,0 mm 0,0 km/h (0 Bft) S-SO 157 0 min -6,8 C 0,0 km/h (0 Bft)
08.03.2016 19:00 -2,2 C -2,8 C 74 % 1014,1 hPa 0,0 mm 0,0 km/h (0 Bft) S-SO 157 0 min -6,2 C 0,0 km/h (0 Bft)
08.03.2016 19:05 -2,4 C -2,8 C 74 % 1014,1 hPa 0,0 mm 0,3 km/h (0 Bft) NW 315 0 min -6,4 C 0,0 km/h (0 Bft)
08.03.2016 19:10 -2,7 C -3,0 C 73 % 1014,1 hPa 0,0 mm 0,3 km/h (0 Bft) NW 315 0 min -6,9 C 0,0 km/h (0 Bft)
08.03.2016 19:15 -2,9 C -3,2 C 73 % 1014,1 hPa 0,0 mm 0,0 km/h (0 Bft) W 270 0 min -7,0 C 0,0 km/h (0 Bft)
08.03.2016 19:20 -2,9 C -3,2 C 73 % 1014,1 hPa 0,0 mm 0,0 km/h (0 Bft) W 270 0 min -7,0 C 4,2 km/h (1 Bft)
08.03.2016 19:25 -2,7 C -2,8 C 72 % 1014,1 hPa 0,0 mm 2,7 km/h (1 Bft) S 180 0 min -7,0 C 4,8 km/h (1 Bft)
08.03.2016 19:30 -2,1 C -2,5 C 76 % 1014,4 hPa 0,0 mm 3,9 km/h (1 Bft) S-SO 157 0 min -5,7 C 3,0 km/h (1 Bft)
08.03.2016 19:35 -2,1 C -2,3 C 75 % 1014,4 hPa 0,0 mm 2,1 km/h (1 Bft) S-SO 157 0 min -5,9 C 0,0 km/h (0 Bft)
08.03.2016 19:40 -2,1 C -2,3 C 75 % 1014,4 hPa 0,0 mm 0,6 km/h (0 Bft) S 180 0 min -5,9 C 0,0 km/h (0 Bft)
08.03.2016 19:45 -1,9 C -2,2 C 76 % 1014,4 hPa 0,0 mm 0,0 km/h (0 Bft) S 180 0 min -5,6 C 0,0 km/h (0 Bft)
08.03.2016 19:50 -1,9 C -2,2 C 76 % 1014,5 hPa 0,0 mm 0,0 km/h (0 Bft) S 180 0 min -5,6 C 0,0 km/h (0 Bft)
08.03.2016 19:55 -1,8 C -2,1 C 76 % 1014,5 hPa 0,0 mm 0,3 km/h (0 Bft) S 180 0 min -5,5 C 0,0 km/h (0 Bft)
08.03.2016 20:00 -1,8 C -2,1 C 76 % 1014,5 hPa 0,0 mm 0,3 km/h (0 Bft) W-SW 247 0 min -5,5 C 4,2 km/h (1 Bft)
08.03.2016 20:05 -1,8 C -2,1 C 75 % 1014,5 hPa 0,0 mm 0,9 km/h (0 Bft) W-SW 247 0 min -5,6 C 4,8 km/h (1 Bft)
08.03.2016 20:10 -1,8 C -2,0 C 75 % 1014,8 hPa 0,0 mm 2,1 km/h (1 Bft) S 180 0 min -5,6 C 0,0 km/h (0 Bft)
08.03.2016 20:15 -1,8 C -2,0 C 75 % 1014,8 hPa 0,0 mm 1,8 km/h (1 Bft) S 180 0 min -5,6 C 0,0 km/h (0 Bft)
08.03.2016 20:20 -1,8 C -1,9 C 75 % 1014,8 hPa 0,0 mm 0,6 km/h (0 Bft) SO 135 0 min -5,6 C 0,0 km/h (0 Bft)
08.03.2016 20:25 -1,8 C -1,9 C 75 % 1014,8 hPa 0,0 mm 0,9 km/h (0 Bft) SW 225 0 min -5,6 C 6,0 km/h (2 Bft)
08.03.2016 20:30 -1,8 C -1,8 C 75 % 1014,8 hPa 0,0 mm 2,7 km/h (1 Bft) S 180 0 min -5,6 C 8,3 km/h (2 Bft)
08.03.2016 20:35 -1,8 C -2,1 C 75 % 1014,8 hPa 0,0 mm 6,3 km/h (2 Bft) SW 225 0 min -5,6 C 8,9 km/h (2 Bft)
08.03.2016 20:40 -1,8 C -2,0 C 75 % 1014,8 hPa 0,0 mm 6,6 km/h (2 Bft) W-SW 247 0 min -5,6 C 8,9 km/h (2 Bft)
08.03.2016 20:45 -1,8 C -1,8 C 75 % 1014,8 hPa 0,0 mm 3,6 km/h (1 Bft) SO 135 0 min -5,6 C 0,0 km/h (0 Bft)
08.03.2016 20:50 -1,8 C -1,8 C 75 % 1015,1 hPa 0,0 mm 1,5 km/h (1 Bft) SO 135 0 min -5,6 C 0,0 km/h (0 Bft)
08.03.2016 20:53 -1,8 C -1,8 C 75 % 1015,1 hPa 0,0 mm 1,5 km/h (1 Bft) SO 135 0 min -5,6 C 0,0 km/h (0 Bft)
08.03.2016 20:55 -1,8 C -1,9 C 75 % 1015,1 hPa 0,0 mm 0,0 km/h (0 Bft) SO 135 0 min -5,6 C 0,0 km/h (0 Bft)
08.03.2016 21:00 -1,6 C -1,9 C 76 % 1015,1 hPa 0,0 mm 0,0 km/h (0 Bft) O-SO 112 0 min -5,3 C 0,0 km/h (0 Bft)
08.03.2016 21:05 -1,6 C -1,9 C 76 % 1015,1 hPa 0,0 mm 0,0 km/h (0 Bft) NO 45 0 min -5,3 C 0,0 km/h (0 Bft)
08.03.2016 21:10 -1,8 C -2,0 C 76 % 1015,1 hPa 0,0 mm 0,0 km/h (0 Bft) N-NW 337 0 min -5,5 C 0,0 km/h (0 Bft)
08.03.2016 21:15 -1,8 C -2,1 C 76 % 1015,1 hPa 0,0 mm 0,0 km/h (0 Bft) W 270 0 min -5,5 C 0,0 km/h (0 Bft)
08.03.2016 21:20 -1,9 C -2,1 C 76 % 1015,1 hPa 0,0 mm 0,0 km/h (0 Bft) W-NW 292 0 min -5,6 C 0,0 km/h (0 Bft)
08.03.2016 21:25 -1,9 C -2,2 C 76 % 1015,1 hPa 0,0 mm 0,0 km/h (0 Bft) W 270 0 min -5,6 C 0,0 km/h (0 Bft)
08.03.2016 21:30 -1,9 C -2,2 C 76 % 1015,2 hPa 0,0 mm 0,0 km/h (0 Bft) W-SW 247 0 min -5,6 C 0,0 km/h (0 Bft)
08.03.2016 21:35 -2,0 C -2,2 C 76 % 1015,2 hPa 0,0 mm 0,0 km/h (0 Bft) NW 315 0 min -5,6 C 0,0 km/h (0 Bft)
08.03.2016 21:40 -2,0 C -2,2 C 76 % 1015,2 hPa 0,0 mm 0,0 km/h (0 Bft) N-NW 337 0 min -5,6 C 0,0 km/h (0 Bft)
08.03.2016 21:45 -2,0 C -2,3 C 76 % 1015,2 hPa 0,0 mm 0,0 km/h (0 Bft) W-NW 292 0 min -5,6 C 0,0 km/h (0 Bft)
08.03.2016 21:50 -2,0 C -2,3 C 76 % 1015,4 hPa 0,0 mm 0,0 km/h (0 Bft) W-NW 292 0 min -5,6 C 0,0 km/h (0 Bft)
08.03.2016 21:55 -2,1 C -2,3 C 76 % 1015,4 hPa 0,0 mm 0,0 km/h (0 Bft) W 270 0 min -5,7 C 0,0 km/h (0 Bft)
08.03.2016 22:00 -2,1 C -2,3 C 76 % 1015,4 hPa 0,0 mm 0,0 km/h (0 Bft) W-NW 292 0 min -5,7 C 0,0 km/h (0 Bft)
08.03.2016 22:05 -2,0 C -2,3 C 76 % 1015,4 hPa 0,0 mm 0,9 km/h (0 Bft) S-SW 202 0 min -5,6 C 3,6 km/h (1 Bft)
08.03.2016 22:10 -1,9 C -2,2 C 77 % 1015,2 hPa 0,0 mm 2,1 km/h (1 Bft) S-SW 202 0 min -5,4 C 0,0 km/h (0 Bft)
08.03.2016 22:15 -1,9 C -2,1 C 77 % 1015,2 hPa 0,0 mm 1,8 km/h (1 Bft) S-SO 157 0 min -5,4 C 0,0 km/h (0 Bft)
08.03.2016 22:20 -1,9 C -2,1 C 77 % 1015,2 hPa 0,0 mm 0,0 km/h (0 Bft) N-NO 22 0 min -5,4 C 0,0 km/h (0 Bft)
08.03.2016 22:25 -1,9 C -2,1 C 77 % 1015,2 hPa 0,0 mm 0,0 km/h (0 Bft) SO 135 0 min -5,4 C 0,0 km/h (0 Bft)
08.03.2016 22:30 -1,9 C -2,1 C 77 % 1015,2 hPa 0,0 mm 0,0 km/h (0 Bft) S 180 0 min -5,4 C 0,0 km/h (0 Bft)
08.03.2016 22:35 -1,8 C -2,1 C 78 % 1015,2 hPa 0,0 mm 0,0 km/h (0 Bft) S-SO 157 0 min -5,1 C 0,0 km/h (0 Bft)
08.03.2016 22:40 -1,8 C -2,1 C 78 % 1015,2 hPa 0,0 mm 0,3 km/h (0 Bft) S-SW 202 0 min -5,1 C 3,0 km/h (1 Bft)
08.03.2016 22:45 -1,7 C -2,0 C 78 % 1015,2 hPa 0,0 mm 2,1 km/h (1 Bft) SW 225 0 min -5,0 C 4,2 km/h (1 Bft)
08.03.2016 22:50 -1,7 C -1,9 C 78 % 1015,2 hPa 0,0 mm 2,4 km/h (1 Bft) O-SO 112 0 min -5,0 C 0,0 km/h (0 Bft)
08.03.2016 22:55 -1,8 C -2,0 C 77 % 1015,2 hPa 0,0 mm 0,6 km/h (0 Bft) W-SW 247 0 min -5,3 C 5,4 km/h (1 Bft)
08.03.2016 23:00 -1,8 C -2,0 C 77 % 1015,2 hPa 0,0 mm 0,3 km/h (0 Bft) W 270 0 min -5,3 C 3,3 km/h (1 Bft)
08.03.2016 23:05 -1,8 C -2,0 C 77 % 1015,2 hPa 0,0 mm 0,3 km/h (0 Bft) O-NO 67 0 min -5,3 C 0,0 km/h (0 Bft)
08.03.2016 23:10 -1,8 C -2,0 C 77 % 1015,1 hPa 0,0 mm 0,0 km/h (0 Bft) O-NO 67 0 min -5,3 C 0,0 km/h (0 Bft)
08.03.2016 23:15 -1,8 C -2,0 C 78 % 1015,1 hPa 0,0 mm 0,0 km/h (0 Bft) O-SO 112 0 min -5,1 C 0,0 km/h (0 Bft)
08.03.2016 23:20 -1,8 C -2,0 C 78 % 1015,1 hPa 0,0 mm 0,0 km/h (0 Bft) W-SW 247 0 min -5,1 C 0,0 km/h (0 Bft)
08.03.2016 23:25 -1,8 C -2,0 C 78 % 1015,1 hPa 0,0 mm 0,0 km/h (0 Bft) O-NO 67 0 min -5,1 C 0,0 km/h (0 Bft)
08.03.2016 23:30 -1,8 C -2,0 C 78 % 1014,9 hPa 0,0 mm 0,0 km/h (0 Bft) O-NO 67 0 min -5,1 C 0,0 km/h (0 Bft)
08.03.2016 23:35 -1,8 C -2,1 C 78 % 1014,9 hPa 0,0 mm 0,0 km/h (0 Bft) NO 45 0 min -5,1 C 0,0 km/h (0 Bft)
08.03.2016 23:40 -1,8 C -2,1 C 78 % 1014,9 hPa 0,0 mm 0,0 km/h (0 Bft) S-SO 157 0 min -5,1 C 0,0 km/h (0 Bft)
08.03.2016 23:45 -1,8 C -2,0 C 78 % 1014,9 hPa 0,0 mm 0,3 km/h (0 Bft) SW 225 0 min -5,1 C 3,9 km/h (1 Bft)
08.03.2016 23:50 -1,7 C -1,9 C 78 % 1015,1 hPa 0,0 mm 0,9 km/h (0 Bft) SO 135 0 min -5,0 C 0,0 km/h (0 Bft)
08.03.2016 23:54 -1,7 C -1,9 C 78 % 1015,1 hPa 0,0 mm 0,9 km/h (0 Bft) SO 135 0 min -5,0 C 0,0 km/h (0 Bft)
08.03.2016 23:55 -1,8 C -2,0 C 78 % 1015,1 hPa 0,0 mm 0,6 km/h (0 Bft) O 90 0 min -5,1 C 0,0 km/h (0 Bft)
_ Min-Zeit 04:15 04:15 09:40 00:25 - 23:40 - - - 04:15 23:55
Minimum _ -5,7 C -6,1 C 63 % 1004,8 hPa - 0,0 km/h (0 Bft) - - - -8,6 C 0,0 km/h (0 Bft)
_ Max-Zeit 15:15 15:10 05:15 22:05 14:05 13:05 - - 15:20 14:45 13:10
Maximum _ 1,8 C 6,9 C 82 % 1015,4 hPa 0,7 mm 12,8 km/h
NW (3 Bft)
- - 5 min -3,2 C 28,6 km/h
N-NW (4 Bft)
Durchschnitt _ -1,8 C -1,3 C 74 % 1010,8 hPa #0,7 mm 3,2 km/h (1 Bft) SW - #20 min. -5,9 C 4,4 km/h (1 Bft)